TimeCST,TemperatureF,Dew PointF,Humidity,Sea Level PressureIn,VisibilityMPH,Wind Direction,Wind SpeedMPH,Gust SpeedMPH,PrecipitationIn,Events,Conditions,WindDirDegrees,DateUTC
12:53 AM,16.0,-0.9,47,30.41,10.0,NNW,6.9,-,N/A,,Clear,330,2013-01-22 06:53:00
1:53 AM,16.0,-0.9,47,30.42,10.0,NW,8.1,-,N/A,,Clear,320,2013-01-22 07:53:00
2:53 AM,16.0,-2.9,43,30.43,10.0,NNW,11.5,-,N/A,,Clear,340,2013-01-22 08:53:00
3:53 AM,15.1,-2.9,45,30.43,10.0,NW,10.4,-,N/A,,Mostly Cloudy,320,2013-01-22 09:53:00
4:53 AM,14.0,-0.9,52,30.44,10.0,NNW,10.4,-,N/A,,Partly Cloudy,330,2013-01-22 10:53:00
5:53 AM,14.0,-2.9,47,30.46,10.0,NW,8.1,-,N/A,,Mostly Cloudy,310,2013-01-22 11:53:00
6:53 AM,14.0,-0.9,52,30.45,10.0,NNE,5.8,-,N/A,,Mostly Cloudy,20,2013-01-22 12:53:00
7:53 AM,15.1,-0.9,49,30.48,10.0,North,4.6,-,N/A,,Overcast,10,2013-01-22 13:53:00
8:53 AM,15.1,-0.9,49,30.50,10.0,Calm,Calm,-,N/A,,Overcast,0,2013-01-22 14:53:00
9:53 AM,16.0,-0.9,47,30.50,10.0,Calm,Calm,-,N/A,,Overcast,0,2013-01-22 15:53:00
10:53 AM,17.1,-2.0,43,30.52,10.0,WNW,5.8,-,N/A,,Overcast,290,2013-01-22 16:53:00
11:36 AM,17.6,3.2,53,30.49,2.5,West,5.8,-,0.00,Snow,Light Snow,260,2013-01-22 17:36:00
11:53 AM,16.0,6.1,65,30.50,1.2,West,3.5,-,0.00,Snow,Light Snow,260,2013-01-22 17:53:00
12:53 PM,17.1,9.0,71,30.46,1.2,Calm,Calm,-,0.00,Snow,Light Snow,0,2013-01-22 18:53:00
1:44 PM,15.8,10.4,79,30.42,3.0,Calm,Calm,-,0.00,Snow,Light Snow,0,2013-01-22 19:44:00
1:53 PM,16.0,10.0,77,30.44,4.0,Calm,Calm,-,0.00,Snow,Light Snow,0,2013-01-22 19:53:00
2:14 PM,17.6,8.6,68,30.42,10.0,Calm,Calm,-,0.00,,Overcast,0,2013-01-22 20:14:00
2:40 PM,17.6,10.4,73,30.42,10.0,Calm,Calm,-,0.00,,Overcast,0,2013-01-22 20:40:00
2:53 PM,18.0,10.0,71,30.45,10.0,Calm,Calm,-,0.00,,Overcast,0,2013-01-22 20:53:00
3:02 PM,17.6,10.4,73,30.42,10.0,Calm,Calm,-,N/A,,Overcast,0,2013-01-22 21:02:00
3:09 PM,17.6,10.4,73,30.42,10.0,Calm,Calm,-,N/A,,Overcast,0,2013-01-22 21:09:00
3:53 PM,18.0,10.0,71,30.43,10.0,Calm,Calm,-,N/A,,Overcast,0,2013-01-22 21:53:00
4:53 PM,18.0,10.0,71,30.42,10.0,Calm,Calm,-,N/A,,Overcast,0,2013-01-22 22:53:00
5:53 PM,18.0,10.0,71,30.41,10.0,ENE,3.5,-,N/A,,Overcast,70,2013-01-22 23:53:00
6:53 PM,19.0,10.0,68,30.42,10.0,Calm,Calm,-,N/A,,Overcast,0,2013-01-23 00:53:00
7:53 PM,18.0,10.0,71,30.41,10.0,Calm,Calm,-,N/A,,Mostly Cloudy,0,2013-01-23 01:53:00
8:53 PM,14.0,8.1,77,30.41,10.0,Calm,Calm,-,N/A,,Clear,0,2013-01-23 02:53:00
9:53 PM,12.9,9.0,84,30.41,10.0,Calm,Calm,-,N/A,,Clear,0,2013-01-23 03:53:00
10:53 PM,14.0,10.0,84,30.42,10.0,Calm,Calm,-,N/A,,Clear,0,2013-01-23 04:53:00
11:53 PM,12.9,9.0,84,30.42,8.0,Calm,Calm,-,N/A,,Clear,0,2013-01-23 05:53:00